Regional Weather Roundup
Issued by NWS Green Bay, WI

Home | Current Version | Previous Version | Graphics & Text | Print | Product List | Glossary Off
Versions: 1 2 3 4 5 6 7 8 9 10 11 12 13 14 15 16 17 18 19 20 21 22 23 24 25 26 27 28 29 30 31 32 33 34 35 36 37 38 39 40 41 42 43 44 45 46 47 48 49 50

000
ASUS43 KGRB 130500
RWRGRB

NORTH-CENTRAL AND NORTHEAST WISCONSIN REGIONAL WEATHER ROUNDUP
NATIONAL WEATHER SERVICE GREEN BAY WI
1100 PM CST TUE DEC 12 2017

WIZ005-009-010>012-018-019-130600-
NORTH CENTRAL WISCONSIN

CITY           SKY/WX    TMP DP  RH WIND       PRES   REMARKS
IRONWOOD       FLURRIES  10   6  84 SE5       29.72F WCI   2
MANITOWISH WTR NOT AVBL
ARBOR VITAE    NOT AVBL
EAGLE RIVER    CLOUDY    10   3  73 CALM      29.73F
LAND O LAKES   CLOUDY    10   4  78 CALM      29.73F
RHINELANDER    LGT SNOW  10   7  87 S7        29.74F FOG     WCI  -1
PHILLIPS       FLURRIES  10   6  83 SE8       29.72F WCI  -2
ANTIGO         NOT AVBL
TOMAHAWK       NOT AVBL
MERRILL        LGT SNOW  11   7  82 S3        29.79F
$$

WIZ013-073-130600-
NORTHEAST WISCONSIN

CITY           SKY/WX    TMP DP  RH WIND       PRES   REMARKS
IRON MOUNTAIN  CLOUDY    10   3  73 CALM      29.79F
MARINETTE      CLOUDY    10   4  76 CALM      29.88F
$$

WIZ017-030-035>037-045-130600-
CENTRAL WISCONSIN

CITY           SKY/WX    TMP DP  RH WIND       PRES   REMARKS
MEDFORD        NOT AVBL
WAUSAU         LGT SNOW  12   7  80 S6        29.78F WCI   3
MOSINEE        NOT AVBL
MARSHFIELD     CLOUDY    13   9  84 SE8       29.76F WCI   2
WISC RAPIDS    CLOUDY    15   8  73 SE6       29.83F WCI   6
STEVENS POINT  NOT AVBL
WAUPACA        LGT SNOW  17   8  66 CALM      29.86F
SHAWANO        CLOUDY    17   3  55 CALM      29.85F
CLINTONVILLE   NOT AVBL
WAUTOMA        FLURRIES  15   7  70 SE5       29.86F WCI   8
$$

WIZ038-039-048-051-130600-
FOX VALLEY

CITY           SKY/WX    TMP DP  RH WIND       PRES   REMARKS
NWS GREEN BAY  CLOUDY    16   3  56 SW3       29.87F
APPLETON       CLOUDY    16   0  48 SW3       29.85F
OSHKOSH        CLOUDY    16   4  59 SW5       29.87F WCI   9
FOND DU LAC    CLOUDY    17   3  54 W5        29.88F WCI  10
$$

WIZ022-050-052-130600-
EAST CENTRAL WISCONSIN

CITY           SKY/WX    TMP DP  RH WIND       PRES   REMARKS
EPHRAIM        FAIR      13   4  64 CALM      29.84F
WASHINGTON ISL NOT AVBL
STURGEON BAY   PTCLDY    14   5  67 S3        29.87F
MANITOWOC      CLOUDY    15   4  61 W6        29.89F WCI   6
SHEBOYGAN      CLOUDY    16   4  59 W5        29.88F WCI   9
$$

LMZ563-521-522-541>543-130600-
LAKESHORE

STATION/POSITION TIME  TEMP    WIND        PRES    VSBY  WAVE
                       AIR SEA DIR/SP/G                  HT/PER
                 (UTC) (F)     (DEG/KT/KT) (MB)    (MI)  (FT/S)
SHEBOYGAN LKSHOR 0400   16     300/  4/  5 1014.4F
KEWAUNEE LKSHORE 0430   14     250/  5/  6 1011.5F
NORTHPORT PIER   0440   17     280/  5/  7 1011.5F
MENOMINEE LKSHOR 0430   13     280/  4/  6 1011.7F
$$




USA.gov is the U.S. government's official web portal to all federal, state and local government web resources and services.